Home > Weather > Aschersleben > Past weeks

Flag for Germany Past Weather in Aschersleben, Saxony-Anhalt, Germany — Yesterday and Last 2 Weeks

Now
70 °F

Clear.


Feels Like: 70 °F
Forecast: 59 / 85 °F
Wind: 9 mph from East

Location: Leipzig-Schkeuditz

Current Time: Aug 24, 2016 at 9:57:53 PM

Latest Report: Aug 24, 2016 at 9:20 PM


Visibility: 10 mi

Pressure: 30.21 "Hg

Humidity: 60%

Dew Point: 55 °F

Location of AscherslebenLocation

Past Weather in Aschersleben — Graph

°F

Aschersleben Temperature Yesterday

Maximum temperature yesterday: 79 °F (at 12:50 PM)
Minimum temperature yesterday: 59 °F (at 5:50 AM)
Average temperature yesterday: 70 °F

High & Low Weather Summary for the Past Weeks

 TemperatureHumidityPressure
High84 °F (Aug 24, 4:20 PM)100% (Aug 10, 8:20 AM)30.33 "Hg (Aug 10, 8:20 AM)
Low45 °F (Aug 11, 3:20 AM)33% (Aug 18, 4:20 PM)29.80 "Hg (Aug 18, 3:50 PM)
Average64 °F70%30.10 "Hg
* Reported Aug 9 8:20 PM — Aug 24 8:20 PM, Aschersleben, Weather by CustomWeather, © 2016

Note: Actual official high and low records may vary slightly from our data, if they occured in-between our weather recording intervals... More about our weather records

Advertising

Aschersleben Weather History for the Previous 24 Hours

Scroll right to see more
 ConditionsComfort  
Time TempWeatherWind HumidityBarometerVisibility
8:20 PM
Wed, Aug 24
73 °FSunny.9 mph53%30.21 "Hg10 mi
7:50 PM77 °FSunny.9 mph51%30.21 "Hg10 mi
7:20 PM79 °FSunny.10 mph45%30.21 "Hg10 mi
6:50 PM82 °FSunny.10 mph40%30.21 "Hg10 mi
6:20 PM82 °FSunny.9 mph40%30.21 "Hg10 mi
5:50 PM82 °FPassing clouds.9 mph40%30.21 "HgN/A
5:20 PM84 °FPassing clouds.9 mph40%30.24 "HgN/A
4:50 PM84 °FPassing clouds.7 mph37%30.24 "HgN/A
4:20 PM84 °FSunny.7 mph35%30.24 "Hg10 mi
3:50 PM82 °FPassing clouds.9 mph42%30.24 "HgN/A
3:20 PM82 °FPassing clouds.7 mph42%30.24 "HgN/A
2:50 PM82 °FPassing clouds.7 mph42%30.24 "HgN/A
2:20 PM82 °FPassing clouds.7 mph42%30.27 "HgN/A
1:50 PM81 °FPassing clouds.6 mph48%30.27 "HgN/A
1:20 PM81 °FPassing clouds.7 mph48%30.27 "HgN/A
12:50 PM81 °FPassing clouds.5 mph48%30.27 "HgN/A
12:20 PM79 °FPassing clouds.8 mph51%30.30 "HgN/A
11:50 AM79 °FPassing clouds.7 mph54%30.30 "HgN/A
11:20 AM77 °FPassing clouds.8 mph57%30.30 "HgN/A
10:50 AM75 °FPassing clouds.9 mph61%30.30 "HgN/A
10:20 AM75 °FSunny.12 mph61%30.30 "Hg10 mi
9:50 AM73 °FSunny.12 mph69%30.30 "Hg10 mi
9:20 AM72 °FSunny.8 mph69%30.30 "Hg10 mi
8:50 AM70 °FPassing clouds.6 mph73%30.30 "HgN/A
8:20 AM66 °FSunny.6 mph88%30.30 "Hg10 mi
7:50 AM64 °FPassing clouds.5 mph88%30.30 "HgN/A
7:20 AM63 °FSunny.6 mph94%30.30 "Hg10 mi
6:50 AM61 °FClear.6 mph94%30.30 "Hg10 mi
6:20 AM59 °FPassing clouds.7 mph100%30.30 "HgN/A
5:50 AM61 °FClear.5 mph94%30.30 "Hg10 mi
5:20 AM61 °FClear.7 mph94%30.30 "Hg10 mi
4:50 AM63 °FClear.7 mph94%30.30 "Hg10 mi
4:20 AM63 °FClear.8 mph94%30.30 "Hg10 mi
3:50 AM63 °FClear.6 mph94%30.30 "Hg10 mi
3:20 AM63 °FClear.6 mph88%30.30 "Hg10 mi
2:50 AM63 °FClear.6 mph88%30.30 "Hg10 mi
2:20 AM63 °FClear.6 mph94%30.30 "Hg10 mi
1:50 AM64 °FClear.6 mph88%30.30 "Hg10 mi
1:20 AM63 °FClear.7 mph88%30.30 "Hg10 mi
12:50 AM64 °FClear.7 mph88%30.33 "Hg10 mi
12:20 AM64 °FClear.8 mph88%30.33 "Hg10 mi
11:50 PM
Tue, Aug 23
68 °FClear.7 mph78%30.30 "Hg10 mi
11:20 PM68 °FClear.6 mph78%30.33 "Hg10 mi
10:50 PM66 °FClear.5 mph83%30.33 "Hg10 mi
10:20 PM68 °FClear.3 mph78%30.33 "Hg10 mi
9:50 PM68 °FClear.3 mph78%30.33 "Hg10 mi
9:20 PM70 °FClear.5 mph73%30.33 "Hg10 mi
Weather by CustomWeather, © 2016

See weather overviewHow to use our weather pages